Location: Danville Conservation Area
(38.8674°N, 91.5143°W)
Time: 22:01:23
(UTC-05:00)

OTV 5 (USA 277) - Visible Passes

Search period start: 24 April 2018 00:00
Search period end: 04 May 2018 00:00
Orbit: 308 x 325 km, 54.5° (Epoch: 23 April)

Date Brightness Start Highest point End Pass type
(mag) Time Alt. Az. Time Alt. Az. Time Alt. Az.
30 Apr ? 22:07:43 10° N 22:08:29 13° NNE 22:08:29 13° NNE visible
01 May ? 22:21:29 10° NNW 22:22:22 17° NNW 22:22:22 17° NNW visible
02 May ? 21:03:23 10° NNE 21:03:46 10° NNE 21:04:08 10° NE visible
02 May ? 22:35:45 10° NW 22:36:17 14° NW 22:36:17 14° NW visible
03 May ? 21:16:25 10° NNW 21:18:31 20° NE 21:19:22 17° ENE visible
